Flag for U.S.A. Weather past 2 weeks in Columbia, South Carolina, U.S.A.

Now
87 °F

Sunny.


Feels Like: 85 °F
Forecast: 67 / 88 °F
Wind: 9 mph from South

Location: Columbia Owens Downtown Airport

Current Time: May 29, 2015 at 3:32:19 PM

Latest Report: May 29, 2015 at 2:53 PM


Visibility: 10 mi

Pressure: 30.20 "Hg

Humidity: 30%

Dew point: 52 °F

Location of ColumbiaLocation

Historic Weather in Columbia — Graph

°F

Columbia temperature yesterday

Maximum temperature yesterday: 87 °F (at 4:53 PM)
Minimum temperature yesterday: 68 °F (at 3:53 AM)
Average temperature yesterday: 77 °F

Past Weeks' High & Low Weather Summary

 TemperatureHumidityPressure
High91 °F (May 20, 3:53 PM)93% (May 28, 3:53 AM)30.41 "Hg (May 28, 3:53 AM)
Low55 °F (May 23, 4:53 AM)22% (May 23, 3:53 PM)29.79 "Hg (May 21, 4:53 PM)
Average76 °F63%30.18 "Hg
* Reported May 14 1:53 PM — May 29 1:53 PM, Columbia, Weather by CustomWeather, © 2015

Note: Actual official high and low records may vary slightly from our data, if they occured in-between our weather recording intervals... More about our weather records

Advertising

Columbia weather history for previous 24 hours

 ConditionsComfort  
Time TempWeatherWind HumidityBarometerVisibility
1:53 PM
Fri, May 29
86 °FSunny.3 mph31%30.21 "Hg10 mi
12:53 PM85 °FSunny.5 mph40%30.23 "Hg10 mi
11:53 AM82 °FSunny.3 mph46%30.23 "Hg8 mi
10:53 AM81 °FPassing clouds.No wind47%30.24 "Hg10 mi
9:53 AM78 °FSunny.3 mph56%30.24 "Hg10 mi
8:53 AM75 °FSunny.3 mph66%30.23 "Hg10 mi
7:53 AM71 °FSunny.No wind73%30.23 "Hg10 mi
6:53 AM67 °FClear.No wind87%30.20 "Hg10 mi
5:53 AM67 °FClear.No wind87%30.18 "Hg10 mi
4:53 AM68 °FPassing clouds.No wind84%30.17 "Hg10 mi
3:53 AM69 °FClear.No wind81%30.17 "Hg10 mi
2:53 AM69 °FClear.No wind84%30.18 "Hg10 mi
1:53 AM70 °FClear.No wind81%30.19 "Hg10 mi
12:53 AM72 °FClear.No wind76%30.21 "Hg10 mi
11:53 PM
Thu, May 28
74 °FClear.No wind71%30.21 "Hg10 mi
10:53 PM76 °FClear.No wind67%30.21 "Hg10 mi
9:53 PM76 °FClear.3 mph67%30.19 "Hg10 mi
8:53 PM81 °FSunny.3 mph58%30.17 "Hg10 mi
7:53 PM83 °FSunny.No wind55%30.16 "Hg10 mi
6:53 PM85 °FSunny.6 mph50%30.14 "Hg10 mi
5:53 PM87 °FSunny.7 mph43%30.13 "Hg10 mi
4:53 PM87 °FPassing clouds.7 mph46%30.14 "Hg10 mi
3:53 PM86 °FSunny.6 mph46%30.15 "Hg10 mi
Weather by CustomWeather, © 2015

See weather overviewHow to use our weather pages